{"data":{"norad_id":58874,"epoch":"2026-09-20T15:03:47.759040Z","epoch_age_seconds":141457,"freshness":"FRESH","line1":"1 58874U 24019X   26263.62763610  .00000841  00000+0  40075-4 0  9990","line2":"2 58874  43.0035 228.1771 0001296 269.7795  90.2909 15.27576909148890","mean_motion":15.27576909,"eccentricity":0.0001296,"inclination_deg":43.0035,"raan_deg":228.1771,"arg_perigee_deg":269.7795,"mean_anomaly_deg":90.2909,"bstar":4.0075e-5,"rev_number":14889,"period_min":94.266939459216,"perigee_km":482.16914070367,"apogee_km":483.94756253881,"semimajor_km":6861.1953516212,"source":"CELESTRAK","updated_at":"2026-09-21T09:00:33.991218Z"}}